AQUA

Last updated on July 7, 2021, 6:13 p.m. UTC

1 27424U 02022A   21187.96207395  .00000083  00000-0  28439-4 0  9996
2 27424  98.2102 129.0073 0000809 118.7668 330.1036 14.57104099 19915
UTC
Height (km)
Latitude
Longitude
Inclination
Orbital Period
UTC large
Height (km)
Speed (km/s)
/
Latitude / Longitude
Inclination (degrees)
Orbital Period (minutes)
Azimuth
Elevation
Range (km)
Doppler Factor
iOS Compass Heading
iOS Angle